Location: Niverville
(49.6028°N, 97.0419°W)
Time: 11:56:15
(UTC-05:00)

Amateur Radio Satellites - All Passes

Search period start: 27 August 2014 11:26
Search period end: 28 August 2014 11:26
Location: Niverville, 49.6028°N, 97.0419°W

Satellite Date Start Highest point End Downlink Frequencies (MHz)
Time Altitude Azimuth
SO-50 27 Aug 11:31:10 11:34:30 19° 23° (NNE) 11:37:53 436.795 FM
JAS-1B 27 Aug 11:32:05 11:34:31 11° 33° (NNE) 11:36:53 435.800 - 435.900 CW/SSB
UKube-1 27 Aug 11:46:34 11:50:43 45° 291° (WNW) 11:54:51 145.840 MHz, 145.915 MHz
Oscar 11 27 Aug 11:56:37 12:00:53 52° 289° (WNW) 12:05:07 145.825 FM, Beacon 2401.500 USB
UOSAT-12 27 Aug 12:11:24 12:13:45 13° 5° (N) 12:16:06 437.025 FM, 437.400 FM
FUNcube-1 27 Aug 12:11:36 12:16:06 85° 285° (WNW) 12:20:39 145.950 - 145.970 MHz USB
RS-15 27 Aug 12:13:44 12:24:08 46° 335° (NNW) 12:34:37 29.354 - 29.394 USB, Beacon 29.352 USB
KITSAT 1 27 Aug 12:22:44 12:26:08 13° 263° (W) 12:29:32 435.175 FM
HO-68 27 Aug 12:30:53 12:36:58 32° 305° (NW) 12:43:03 435.675 MHz FM
Oscar 19 27 Aug 12:50:49 12:54:57 25° 60° (ENE) 12:59:08 437.125 CW, 437.150 USB
SO-50 27 Aug 13:11:20 13:16:02 57° 45° (NE) 13:20:48 436.795 FM
JAS-1B 27 Aug 13:14:23 13:22:40 35° 56° (NE) 13:30:10 435.800 - 435.900 CW/SSB
ITAMSAT 1 27 Aug 13:15:15 13:18:59 20° 57° (ENE) 13:22:42 435.822 SSB
Oscar 16 27 Aug 13:24:03 13:28:57 45° 67° (ENE) 13:33:53 437.025 USB, Beacon 2401.1428
Uribyol 2 27 Aug 13:25:38 13:29:47 25° 60° (ENE) 13:33:57 436.500 FM
ISS 27 Aug 13:36:31 13:39:43 46° 151° (SSE) 13:42:56 145.800 FM
AO-27 27 Aug 13:42:13 13:46:46 32° 63° (ENE) 13:51:20 436.795 MHz FM
AO-Echo 27 Aug 13:47:03 13:51:36 35° 65° (ENE) 13:56:03 ?
MaSat-1 27 Aug 13:48:00 13:50:47 15° 100° (E) 13:53:38 437.345 MHz
FUNcube-1 27 Aug 13:49:44 13:51:50 13° 303° (WNW) 13:53:57 145.950 - 145.970 MHz USB
Gurwin Techsat 1B 27 Aug 13:50:22 13:54:07 20° 57° (ENE) 13:57:53 435.225 FM
UOSAT-12 27 Aug 13:51:39 13:55:33 24° 29° (NNE) 13:59:24 437.025 FM, 437.400 FM
AO-7 27 Aug 14:07:43 14:13:03 19° 38° (NE) 14:18:23 29.400 - 29.500 MHz
Oscar 19 27 Aug 14:28:53 14:33:58 58° 259° (W) 14:39:06 437.125 CW, 437.150 USB
RS-15 27 Aug 14:29:46 14:39:44 37° 8° (N) 14:49:51 29.354 - 29.394 USB, Beacon 29.352 USB
TMSAT-1 27 Aug 14:42:57 14:47:46 37° 64° (ENE) 14:52:35 436.925 FM
SO-50 27 Aug 14:52:22 14:56:21 27° 244° (WSW) 15:00:22 436.795 FM
ITAMSAT 1 27 Aug 14:52:48 14:57:58 74° 256° (WSW) 15:03:09 435.822 SSB
JAS-1B 27 Aug 15:02:41 15:12:33 80° 255° (WSW) 15:21:25 435.800 - 435.900 CW/SSB
Uribyol 2 27 Aug 15:03:53 15:08:57 57° 259° (W) 15:14:03 436.500 FM
Oscar 16 27 Aug 15:04:01 15:08:29 29° 266° (W) 15:13:00 437.025 USB, Beacon 2401.1428
ISS 27 Aug 15:13:06 15:16:26 65° 351° (N) 15:19:46 145.800 FM
AO-27 27 Aug 15:21:16 15:26:10 43° 262° (W) 15:31:07 436.795 MHz FM
MaSat-1 27 Aug 15:22:04 15:27:03 87° 120° (ESE) 15:32:18 437.345 MHz
AO-Echo 27 Aug 15:25:44 15:30:22 36° 263° (W) 15:34:55 ?
Gurwin Techsat 1B 27 Aug 15:28:12 15:33:31 78° 256° (WSW) 15:38:52 435.225 FM
UOSAT-12 27 Aug 15:31:32 15:36:19 89° 231° (SW) 15:41:01 437.025 FM, 437.400 FM
AO-7 27 Aug 15:56:08 16:04:14 58° 61° (ENE) 16:12:20 29.400 - 29.500 MHz
Uosat F 27 Aug 16:12:28 16:17:15 47° 67° (ENE) 16:22:04 435.120 FM
TMSAT-1 27 Aug 16:22:47 16:27:41 38° 264° (W) 16:32:37 436.925 FM
ITAMSAT 1 27 Aug 16:36:54 16:38:23 11° 275° (W) 16:39:52 435.822 SSB
RS-15 27 Aug 16:43:39 16:54:35 63° 40° (NE) 17:05:51 29.354 - 29.394 USB, Beacon 29.352 USB
ISS 27 Aug 16:50:03 16:53:23 68° 11° (N) 16:56:44 145.800 FM
JAS-1B 27 Aug 16:56:57 17:04:08 23° 274° (W) 17:10:53 435.800 - 435.900 CW/SSB
MaSat-1 27 Aug 17:00:47 17:04:49 23° 321° (NW) 17:08:56 437.345 MHz
Gurwin Techsat 1B 27 Aug 17:12:14 17:14:23 12° 275° (W) 17:16:33 435.225 FM
UOSAT-12 27 Aug 17:13:07 17:15:48 15° 250° (WSW) 17:18:27 437.025 FM, 437.400 FM
Sapphire 27 Aug 17:13:17 17:14:34 11° 101° (E) 17:15:51 437.095 MHz 1200 baud AX-25 AFSK
OPAL 27 Aug 17:17:20 17:21:44 27° 96° (E) 17:26:05 ?
Oscar 10/S400 27 Aug 17:23:48 17:34:46 17° 138° (SE) 17:48:18 145.825 - 145.975 CW/USB, Beacon 145.810 USB
PCSat 27 Aug 17:40:04 17:43:58 21° 107° (ESE) 17:47:53 145.825 MHz
JAS-2 27 Aug 17:43:36 17:49:17 41° 66° (ENE) 17:54:26 435.800 - 435.900 CW/SSB, 435.910 FM
AO-7 27 Aug 17:49:37 17:57:20 41° 262° (W) 18:05:06 29.400 - 29.500 MHz
Uosat F 27 Aug 17:52:03 17:56:16 27° 266° (W) 18:00:30 435.120 FM
Hamsat 27 Aug 18:03:00 18:07:11 50° 71° (ENE) 18:11:25 145.90 MHz
ISS 27 Aug 18:26:53 18:30:04 41° 210° (SSW) 18:33:14 145.800 FM
Sapphire 27 Aug 18:51:35 18:56:56 65° 120° (ESE) 19:02:19 437.095 MHz 1200 baud AX-25 AFSK
OPAL 27 Aug 18:55:48 19:00:52 52° 294° (WNW) 19:05:55 ?
RS-15 27 Aug 18:56:21 19:06:50 52° 245° (WSW) 19:17:41 29.354 - 29.394 USB, Beacon 29.352 USB
STRAND 1 27 Aug 18:56:43 18:59:00 13° 86° (E) 19:01:16 ?
PCSat 27 Aug 19:21:23 19:26:49 77° 307° (NW) 19:32:17 145.825 MHz
JAS-2 27 Aug 19:28:46 19:34:28 37° 263° (W) 19:39:39 435.800 - 435.900 CW/SSB, 435.910 FM
HO-68 27 Aug 19:30:34 19:35:40 22° 48° (NE) 19:40:47 435.675 MHz FM
Hamsat 27 Aug 19:40:17 19:43:27 20° 269° (W) 19:46:39 145.90 MHz
SO-67 27 Aug 19:44:08 19:47:36 86° 257° (WSW) 19:51:07 435.3500 MHz FM
STRAND 1 27 Aug 20:33:51 20:39:00 84° 105° (ESE) 20:44:06 ?
Sapphire 27 Aug 20:35:59 20:40:46 31° 322° (NW) 20:45:35 437.095 MHz 1200 baud AX-25 AFSK
OPAL 27 Aug 20:37:12 20:38:40 11° 314° (NW) 20:40:08 ?
PCSat 27 Aug 21:06:55 21:11:08 22° 330° (NNW) 21:15:21 145.825 MHz
UKube-1 27 Aug 21:10:23 21:14:18 34° 66° (ENE) 21:18:15 145.840 MHz, 145.915 MHz
RS-15 27 Aug 21:13:26 21:16:19 11° 269° (W) 21:19:12 29.354 - 29.394 USB, Beacon 29.352 USB
HO-68 27 Aug 21:15:15 21:22:24 79° 69° (ENE) 21:29:34 435.675 MHz FM
Oscar 11 27 Aug 21:20:21 21:24:00 27° 64° (ENE) 21:27:40 145.825 FM, Beacon 2401.500 USB
FUNcube-1 27 Aug 21:37:52 21:40:38 17° 60° (ENE) 21:43:27 145.950 - 145.970 MHz USB
MaSat-1 27 Aug 21:59:28 22:02:42 17° 33° (NNE) 22:05:44 437.345 MHz
STRAND 1 27 Aug 22:14:14 22:17:34 18° 304° (NW) 22:20:54 ?
Sapphire 27 Aug 22:23:15 22:25:59 14° 347° (NNW) 22:28:44 437.095 MHz 1200 baud AX-25 AFSK
AO-40 27 Aug 22:28:11 03:35:37 31° 183° (S) 11:13:13 Beacon 2401.320
UKube-1 27 Aug 22:46:44 22:50:33 29° 264° (W) 22:54:23 145.840 MHz, 145.915 MHz
PCSat 27 Aug 22:54:25 22:56:40 12° 356° (N) 22:58:56 145.825 MHz
Oscar 11 27 Aug 22:56:00 23:00:03 38° 263° (W) 23:04:09 145.825 FM, Beacon 2401.500 USB
HO-68 27 Aug 23:05:17 23:10:52 24° 270° (W) 23:16:29 435.675 MHz FM
KITSAT 1 27 Aug 23:08:19 23:11:00 12° 96° (E) 23:13:41 435.175 FM
FUNcube-1 27 Aug 23:12:29 23:16:36 61° 259° (W) 23:20:51 145.950 - 145.970 MHz USB
MaSat-1 27 Aug 23:35:54 23:40:48 68° 56° (NE) 23:45:05 437.345 MHz
Saudisat 1A 28 Aug 00:01:52 00:05:44 30° 118° (ESE) 00:09:37 436.775 MHz
Sapphire 28 Aug 00:09:04 00:11:50 14° 14° (NNE) 00:14:37 437.095 MHz 1200 baud AX-25 AFSK
PCSat 28 Aug 00:38:56 00:42:26 17° 22° (NNE) 00:45:56 145.825 MHz
KITSAT 1 28 Aug 00:56:47 01:04:36 56° 117° (ESE) 01:12:27 435.175 FM
MaSat-1 28 Aug 01:14:04 01:17:12 18° 258° (WSW) 01:20:06 437.345 MHz
Oscar 16 28 Aug 01:33:42 01:35:10 11° 84° (E) 01:36:39 437.025 USB, Beacon 2401.1428
Saudisat 1A 28 Aug 01:40:57 01:45:12 45° 318° (NW) 01:49:29 436.775 MHz
Sapphire 28 Aug 01:52:12 01:57:03 31° 39° (NE) 02:01:52 437.095 MHz 1200 baud AX-25 AFSK
PCSat 28 Aug 02:21:57 02:27:13 47° 46° (NE) 02:32:27 145.825 MHz
Oscar 19 28 Aug 02:36:05 02:40:55 37° 96° (E) 02:45:42 437.125 CW, 437.150 USB
JAS-1B 28 Aug 02:46:13 02:51:46 24° 86° (E) 02:56:41 435.800 - 435.900 CW/SSB
KITSAT 1 28 Aug 02:52:22 03:00:12 50° 320° (NW) 03:08:04 435.175 FM
OPAL 28 Aug 03:00:31 03:03:17 15° 50° (NE) 03:06:05 ?
ITAMSAT 1 28 Aug 03:01:34 03:06:03 29° 94° (E) 03:10:31 435.822 SSB
Oscar 16 28 Aug 03:10:14 03:15:28 73° 103° (ESE) 03:20:39 437.025 USB, Beacon 2401.1428
Uribyol 2 28 Aug 03:12:10 03:16:58 37° 97° (E) 03:21:46 436.500 FM
Saudisat 1A 28 Aug 03:23:09 03:25:51 16° 341° (NNW) 03:28:33 436.775 MHz
AO-Echo 28 Aug 03:28:01 03:32:38 51° 100° (E) 03:37:12 ?
AO-27 28 Aug 03:29:28 03:34:31 49° 100° (E) 03:39:32 436.795 MHz FM
Sapphire 28 Aug 03:35:29 03:40:52 63° 240° (WSW) 03:46:13 437.095 MHz 1200 baud AX-25 AFSK
Gurwin Techsat 1B 28 Aug 03:40:17 03:44:58 31° 94° (E) 03:49:38 435.225 FM
AO-7 28 Aug 03:55:52 03:58:34 12° 81° (E) 04:01:15 29.400 - 29.500 MHz
PCSat 28 Aug 04:05:37 04:10:33 36° 246° (WSW) 04:15:27 145.825 MHz
Oscar 19 28 Aug 04:15:31 04:20:16 37° 295° (WNW) 04:25:00 437.125 CW, 437.150 USB
TMSAT-1 28 Aug 04:33:33 04:38:50 63° 102° (ESE) 04:44:04 436.925 FM
JAS-1B 28 Aug 04:36:01 04:43:22 71° 291° (WNW) 04:49:32 435.800 - 435.900 CW/SSB
OPAL 28 Aug 04:36:18 04:41:20 75° 70° (ENE) 04:46:29 ?
ITAMSAT 1 28 Aug 04:40:48 04:45:45 46° 293° (WNW) 04:50:41 435.822 SSB
Oscar 16 28 Aug 04:50:31 04:54:19 21° 303° (WNW) 04:58:05 437.025 USB, Beacon 2401.1428
KITSAT 1 28 Aug 04:51:05 04:57:41 26° 348° (NNW) 05:04:17 435.175 FM
Uribyol 2 28 Aug 04:51:43 04:56:27 37° 296° (WNW) 05:01:10 436.500 FM
Saudisat 1A 28 Aug 05:05:32 05:07:15 12° 5° (N) 05:08:57 436.775 MHz
AO-Echo 28 Aug 05:07:25 05:11:08 24° 299° (WNW) 05:14:50 ?
AO-27 28 Aug 05:09:26 05:13:49 29° 299° (WNW) 05:18:12 436.795 MHz FM
SO-50 28 Aug 05:10:53 05:15:00 36° 119° (ESE) 05:19:13 436.795 FM
Gurwin Techsat 1B 28 Aug 05:20:04 05:25:07 45° 293° (WNW) 05:30:08 435.225 FM
Sapphire 28 Aug 05:22:09 05:23:13 11° 259° (W) 05:24:17 437.095 MHz 1200 baud AX-25 AFSK
AO-7 28 Aug 05:45:09 05:53:19 56° 103° (ESE) 06:01:24 29.400 - 29.500 MHz
Uosat F 28 Aug 05:54:10 05:59:10 68° 103° (ESE) 06:04:09 435.120 FM
TMSAT-1 28 Aug 06:14:12 06:18:21 24° 301° (WNW) 06:22:30 436.925 FM
STRAND 1 28 Aug 06:16:02 06:20:27 31° 62° (ENE) 06:24:52 ?
OPAL 28 Aug 06:17:26 06:20:48 18° 269° (W) 06:24:14 ?
Oscar 10/S400 28 Aug 06:21:05 07:06:27 15° 252° (WSW) 08:23:53 145.825 - 145.975 CW/USB, Beacon 145.810 USB
JAS-1B 28 Aug 06:27:49 06:32:32 18° 316° (NW) 06:36:49 435.800 - 435.900 CW/SSB
JAS-2 28 Aug 06:32:43 06:36:35 21° 91° (E) 06:40:34 435.800 - 435.900 CW/SSB, 435.910 FM
Saudisat 1A 28 Aug 06:44:55 06:48:25 22° 29° (NNE) 06:51:55 436.775 MHz
KITSAT 1 28 Aug 06:49:08 06:55:57 28° 18° (NNE) 07:02:43 435.175 FM
SO-50 28 Aug 06:51:14 06:55:32 41° 320° (NW) 06:59:57 436.795 FM
RS-15 28 Aug 07:17:51 07:24:33 19° 97° (E) 07:31:11 29.354 - 29.394 USB, Beacon 29.352 USB
Hamsat 28 Aug 07:20:10 07:24:30 57° 100° (E) 07:28:47 145.90 MHz
UOSAT-12 28 Aug 07:26:17 07:30:51 60° 125° (SE) 07:35:31 437.025 FM, 437.400 FM
Uosat F 28 Aug 07:33:50 07:37:30 21° 302° (WNW) 07:41:10 435.120 FM
AO-7 28 Aug 07:38:17 07:45:57 44° 304° (NW) 07:53:35 29.400 - 29.500 MHz
STRAND 1 28 Aug 07:54:38 07:59:30 44° 261° (W) 08:04:23 ?
JAS-2 28 Aug 08:17:05 08:22:11 61° 290° (WNW) 08:27:29 435.800 - 435.900 CW/SSB, 435.910 FM
Saudisat 1A 28 Aug 08:24:09 08:28:36 90° 230° (SW) 08:33:01 436.775 MHz
SO-50 28 Aug 08:34:29 08:37:19 16° 344° (NNW) 08:40:11 436.795 FM
SO-67 28 Aug 08:36:39 08:40:07 61° 101° (E) 08:43:32 435.3500 MHz FM
HO-68 28 Aug 08:42:13 08:43:24 10° 80° (E) 08:44:35 435.675 MHz FM
KITSAT 1 28 Aug 08:45:05 08:53:06 60° 44° (NE) 09:01:04 435.175 FM
Hamsat 28 Aug 08:56:58 09:00:05 19° 299° (WNW) 09:03:11 145.90 MHz
UOSAT-12 28 Aug 09:07:10 09:11:20 31° 326° (NW) 09:15:33 437.025 FM, 437.400 FM
RS-15 28 Aug 09:23:49 09:34:42 69° 121° (ESE) 09:45:30 29.354 - 29.394 USB, Beacon 29.352 USB
AO-7 28 Aug 09:32:32 09:36:40 15° 328° (NNW) 09:40:48 29.400 - 29.500 MHz
JAS-2 28 Aug 10:04:55 10:06:20 11° 311° (NW) 10:07:46 435.800 - 435.900 CW/SSB, 435.910 FM
Saudisat 1A 28 Aug 10:05:16 10:07:32 14° 249° (WSW) 10:09:47 436.775 MHz
SO-67 28 Aug 10:11:12 10:12:43 12° 299° (WNW) 10:14:13 435.3500 MHz FM
SO-50 28 Aug 10:17:23 10:19:46 14° 9° (N) 10:22:11 436.795 FM
HO-68 28 Aug 10:25:44 10:32:46 55° 101° (ESE) 10:39:45 435.675 MHz FM
UKube-1 28 Aug 10:30:09 10:34:06 33° 97° (E) 10:38:01 145.840 MHz, 145.915 MHz
Oscar 11 28 Aug 10:39:12 10:43:02 29° 95° (E) 10:46:49 145.825 FM, Beacon 2401.500 USB
KITSAT 1 28 Aug 10:40:50 10:48:19 43° 247° (WSW) 10:55:45 435.175 FM
UOSAT-12 28 Aug 10:50:22 10:52:57 14° 349° (N) 10:55:32 437.025 FM, 437.400 FM
FUNcube-1 28 Aug 10:57:36 11:00:57 20° 91° (E) 11:04:18 145.950 - 145.970 MHz USB
